CAPE
225 199 184 71 179 205 121 108 163 108 27 32 31 23 4 0 0 0 0 0 0 0 0 0 0 0 0 0 0 0 0 0
138 83 27 12 42 211 201 158 95 2 17 10 7 1 0 0 0 0 0 0 0 0 0 0 0 0 0 0 0 0 0 0
2 1 0 11 34 68 139 110 9 11 18 14 10 12 10 7 8 2 0 0 0 0 0 0 0 0 0 0 0 0 0 0
2 0 1 0 1 71 121 69 13 19 29 8 15 28 23 14 2 1 0 0 0 0 0 0 0 0 0 0 0 0 0 0
2 3 0 1 70 76 57 34 12 17 15 34 33 15 29 41 50 0 0 0 0 0 0 0 0 0 0 0 0 0 0 0
0 0 6 24 93 62 22 18 16 28 13 37 41 48 55 14 0 0 0 0 0 0 0 0 0 0 0 0 0 0 0 0
10 3 23 84 36 5 0 0 0 0 30 165 174 67 6 0 0 0 0 0 0 0 0 0 0 0 0 0 0 0 0 0
0 0 10 88 15 0 0 0 8 22 89 193 74 0 0 0 0 0 0 0 0 0 0 0 0 0 0 0 0 0 0 0
0 0 59 121 21 0 0 5 14 37 96 95 0 0 0 0 0 0 0 0 0 0 0 0 0 0 0 0 0 0 0 0
0 15 95 132 0 0 0 27 152 144 85 23 0 0 0 0 0 0 0 0 0 0 0 0 0 0 0 0 0 0 0 0
7 104 97 85 0 0 3 82 116 48 15 4 0 0 0 0 0 0 0 0 0 0 0 0 0 0 0 0 0 0 0 0
37 86 107 6 0 0 15 41 13 0 0 0 0 0 0 0 0 0 0 0 0 0 0 0 0 0 0 0 0 0 0 0
4 35 35 0 0 0 1 24 3 0 0 0 0 0 0 0 0 0 0 0 0 0 0 0 0 0 0 0 0 0 0 0
1 19 18 1 0 0 0 0 1 0 0 0 0 0 0 0 0 0 0 0 0 0 0 0 0 0 0 0 0 0 0 0
74 83 61 42 0 0 0 0 0 0 0 0 0 0 0 0 0 0 0 0 0 0 0 0 0 0 0 0 0 0 0 0
110 47 19 7 0 0 0 0 0 0 0 0 0 0 0 0 0 0 0 0 0 0 0 0 0 0 0 0 0 0 0 0
26 33 16 0 0 0 0 0 0 0 0 0 0 0 0 0 0 0 0 0 0 0 0 0 0 0 0 0 0 0 0 0
13 16 16 0 0 0 0 0 0 0 0 0 0 0 0 0 0 0 0 0 0 0 0 0 0 0 0 0 0 0 0 0
28 24 15 0 0 0 1 0 0 0 0 0 0 0 0 0 0 0 0 0 0 0 0 0 0 0 0 0 0 0 0 0
14 29 51 17 0 1 2 0 0 0 0 0 0 0 0 0 0 0 0 0 0 0 0 0 0 0 0 0 0 0 0 0
CIN
-11 -9 -13 -29 -45 -53 -101 -128 -122 -158 -262 -247 -236 -306 -396 -0 -0 -0 -0 -0 -0 -0 -0 -0 -0 -0 -0 -0 -0 -0 -0 -0
-5 -21 -15 -12 -11 -22 -43 -101 -175 -270 -272 -304 -339 -193 -0 -0 -0 -0 -0 -0 -0 -0 -0 -0 -0 -0 -0 -0 -0 -0 -0 -0
-0 -0 -0 -15 -20 -25 -52 -109 -213 -243 -295 -325 -354 -331 -332 -306 -296 -225 -0 -0 -0 -0 -0 -0 -0 -0 -0 -0 -0 -0 -0 -0
-0 -0 -15 -0 -14 -23 -59 -116 -208 -239 -286 -325 -361 -330 -267 -192 -189 -139 -0 -0 -0 -0 -0 -0 -0 -0 -0 -0 -0 -0 -0 -0
-0 -4 -0 -43 -26 -60 -89 -140 -217 -260 -313 -284 -217 -197 -158 -131 -131 -0 -0 -0 -0 -0 -0 -0 -0 -0 -0 -0 -0 -0 -0 -0
-0 -0 -20 -22 -24 -84 -142 -181 -272 -271 -256 -151 -140 -123 -104 -135 -0 -0 -0 -0 -0 -0 -0 -0 -0 -0 -0 -0 -0 -0 -0 -0
-1 -5 -29 -12 -74 -91 -0 -15 -0 -0 -129 -66 -66 -97 -119 -0 -0 -0 -0 -0 -0 -0 -0 -0 -0 -0 -0 -0 -0 -0 -0 -0
-0 -0 -76 -26 -84 -0 -0 -0 -186 -126 -69 -60 -92 -47 -0 -0 -0 -0 -0 -0 -0 -0 -0 -0 -0 -0 -0 -0 -0 -0 -0 -0
-0 -0 -40 -25 -129 -0 -0 -253 -116 -81 -68 -81 -0 -0 -0 -0 -0 -0 -0 -0 -0 -0 -0 -0 -0 -0 -0 -0 -0 -0 -0 -0
-0 -66 -45 -30 -0 -0 -0 -98 -56 -51 -71 -105 -0 -0 -0 -0 -0 -0 -0 -0 -0 -0 -0 -0 -0 -0 -0 -0 -0 -0 -0 -0
-21 -25 -23 -42 -0 -0 -86 -54 -53 -80 -103 -83 -0 -0 -0 -0 -0 -0 -0 -0 -0 -0 -0 -0 -0 -0 -0 -0 -0 -0 -0 -0
-74 -46 -59 -59 -0 -0 -108 -86 -92 -0 -0 -0 -0 -0 -0 -0 -0 -0 -0 -0 -0 -0 -0 -0 -0 -0 -0 -0 -0 -0 -0 -0
-136 -104 -122 -0 -0 -0 -0 -83 -0 -0 -0 -0 -0 -0 -0 -0 -0 -0 -0 -0 -0 -0 -0 -0 -0 -0 -0 -0 -0 -0 -0 -0
-61 -179 -190 -55 -0 -0 -0 -0 -0 -0 -0 -0 -0 -0 -0 -0 -0 -0 -0 -0 -0 -0 -0 -0 -0 -0 -0 -0 -0 -0 -0 -0
-220 -186 -201 -208 -0 -0 -0 -0 -0 -0 -0 -0 -0 -0 -0 -0 -0 -0 -0 -0 -0 -0 -0 -0 -0 -0 -0 -0 -0 -0 -0 -0
-209 -236 -271 -303 -0 -0 -0 -0 -0 -0 -0 -0 -0 -0 -0 -0 -0 -0 -0 -0 -0 -0 -0 -0 -0 -0 -0 -0 -0 -0 -0 -0
-264 -251 -270 -0 -0 -0 -0 -0 -0 -0 -0 -0 -0 -0 -0 -0 -0 -0 -0 -0 -0 -0 -0 -0 -0 -0 -0 -0 -0 -0 -0 -0
-290 -262 -263 -0 -0 -0 -0 -0 -0 -0 -0 -0 -0 -0 -0 -0 -0 -0 -0 -0 -0 -0 -0 -0 -0 -0 -0 -0 -0 -0 -0 -0
-311 -296 -294 -0 -0 -0 -0 -0 -0 -0 -0 -0 -0 -0 -0 -0 -0 -0 -0 -0 -0 -0 -0 -0 -0 -0 -0 -0 -0 -0 -0 -0
-309 -265 -238 -326 -0 -0 -0 -0 -0 -0 -0 -0 -0 -0 -0 -0 -0 -0 -0 -0 -0 -0 -0 -0 -0 -0 -0 -0 -0 -0 -0 -0
Wind_Speed
6 9 13 11 12 12 11 14 14 13 10 9 10 9 6 7 8 10 13 14 16 18 19 19 19 19 20 21 21 23 23 24
5 4 3 6 10 9 9 10 12 8 8 9 10 6 4 4 9 11 12 14 15 17 18 19 19 19 20 21 21 23 23 23
4 9 6 6 6 7 6 8 7 8 9 9 3 1 3 6 7 10 13 14 15 16 18 19 19 20 21 22 22 23 23 24
9 15 10 8 6 3 5 4 5 8 6 6 5 1 3 5 8 11 12 14 15 16 18 18 18 19 20 22 23 23 24 24
8 11 9 9 4 3 3 2 5 8 5 9 7 3 4 6 8 10 11 13 14 16 17 18 19 19 20 21 23 24 24 24
16 11 9 4 4 3 3 3 3 19 31 30 16 3 5 6 8 10 10 12 14 15 17 18 19 20 21 22 24 25 25 25
9 8 8 8 8 5 8 4 24 32 31 10 4 4 6 7 8 9 11 12 14 15 16 18 19 20 22 23 24 25 26 27
11 14 7 5 2 7 22 30 31 28 17 10 5 5 7 8 10 10 11 12 14 16 16 18 20 21 23 24 25 25 26 27
28 15 3 4 8 31 31 32 18 16 6 3 5 7 7 9 10 10 11 13 14 16 17 18 20 21 23 23 24 24 25 27
16 30 28 28 29 29 21 18 7 6 3 5 5 7 8 8 10 10 11 13 14 15 17 19 20 22 24 24 23 22 23 26
30 29 28 29 27 8 13 8 5 4 4 5 6 8 8 8 9 10 11 12 14 16 18 20 22 22 23 25 23 21 22 24
30 28 22 4 5 4 4 5 5 6 6 5 6 7 7 8 9 9 11 13 15 16 18 20 21 23 23 24 22 20 21 23
24 18 3 5 2 1 6 6 6 8 8 5 6 7 7 7 8 9 10 13 14 16 18 21 22 23 24 25 22 20 21 22
18 12 6 4 1 4 11 9 13 9 5 5 5 5 6 6 7 8 9 13 14 16 18 21 22 23 27 28 31 26 21 23
17 11 9 8 1 3 9 10 11 10 5 4 4 5 5 5 7 8 10 13 14 16 17 19 24 23 23 27 31 32 33 26
12 9 7 4 3 2 4 5 5 10 3 3 4 4 5 6 7 8 11 13 14 17 18 20 22 25 25 24 26 28 32 35
9 6 6 5 4 4 4 6 10 7 2 2 4 4 4 5 5 8 10 13 16 17 18 21 23 26 27 28 27 28 28 32
6 5 5 5 5 5 6 6 6 7 1 1 3 4 4 4 6 8 11 14 17 16 18 21 25 26 26 27 28 30 31 31
6 6 6 6 7 7 7 6 5 4 2 2 2 4 6 7 7 9 11 15 15 15 20 23 26 26 25 27 26 26 27 30
6 8 8 5 6 6 6 6 6 5 4 3 4 5 7 6 7 10 12 16 14 18 22 24 25 25 25 25 25 26 27 30
Wind_Direction
170 152 140 141 127 116 111 98 95 92 88 89 88 83 79 64 48 40 44 41 48 43 44 46 46 41 38 35 29 25 14 12
163 159 192 174 140 112 108 97 98 90 95 96 92 87 70 48 41 39 35 39 42 46 41 37 40 36 30 28 20 16 15 14
129 125 126 209 162 103 92 90 89 101 101 100 124 153 251 22 21 28 36 41 41 40 35 35 34 27 22 20 16 14 12 10
109 117 121 126 203 131 99 97 102 105 118 107 216 52 10 10 26 31 34 44 43 37 35 31 29 25 20 15 15 13 10 7
143 141 139 131 135 97 93 182 108 107 149 219 231 260 22 9 23 25 39 36 29 26 21 19 22 20 19 15 10 8 6 4
123 127 130 138 105 125 133 123 182 205 178 177 104 19 24 13 20 36 29 20 22 19 22 22 18 16 13 9 5 2 359 357
153 120 122 85 100 110 102 128 195 175 175 242 294 329 352 19 30 32 28 23 27 21 17 16 15 11 6 2 0 359 356 354
135 113 132 81 185 212 196 181 180 196 229 261 307 20 38 41 50 38 30 26 18 15 15 13 8 6 2 359 358 357 356 356
116 113 210 243 224 165 169 174 225 238 277 344 54 49 50 57 37 29 29 26 24 18 13 10 6 4 1 359 358 357 357 356
125 173 166 169 170 183 215 226 259 278 360 44 38 56 63 51 41 34 28 24 19 15 10 6 4 1 358 358 358 358 358 357
152 168 168 167 190 249 239 258 290 332 8 38 65 67 61 50 38 33 27 19 14 12 7 4 360 358 357 356 355 356 355 356
177 174 146 266 261 270 292 306 315 321 326 350 65 60 61 44 34 31 24 17 11 9 5 3 359 356 354 353 353 352 350 350
157 139 100 111 114 288 291 298 310 307 313 34 66 68 56 37 30 27 20 11 8 7 3 360 356 353 352 349 348 346 343 344
154 145 138 143 255 286 284 294 285 304 359 44 57 55 37 36 37 23 18 7 4 1 357 355 355 352 349 347 342 342 339 336
158 147 145 145 168 297 299 294 292 303 339 17 50 42 40 38 24 18 9 3 359 356 353 351 349 350 349 346 342 338 336 340
163 157 155 168 183 241 268 280 293 301 345 56 38 28 25 20 17 12 2 357 353 351 350 350 351 346 346 343 340 338 336 334
174 179 179 185 212 231 268 285 297 321 352 22 3 3 10 13 9 360 355 350 349 345 348 350 349 343 341 341 339 337 335 331
186 204 216 214 242 253 265 274 291 316 267 323 333 346 354 352 351 349 352 353 347 347 347 345 343 341 340 339 337 336 335 334
212 209 248 256 246 251 257 270 271 276 239 274 278 314 324 329 338 349 350 351 347 345 338 339 339 338 338 338 339 338 338 336
213 203 261 245 241 237 245 262 269 261 257 257 260 298 321 335 337 340 341 344 340 340 337 337 338 337 337 338 339 339 338 336